Weather History for Clinton, IA

Change the Weather History Date:

Tuesday, February 11, 2014

  Actual Average Record
Temperature  
Mean Temperature -6 °F -  
Max Temperature 8 °F 31 °F 64 °F (1999)
Min Temperature -20 °F 15 °F -20 °F (2014)
Degree Days  
Heating Degree Days 71    
Moisture  
Dew Point -17 °F    
Average Humidity 60    
Maximum Humidity 91    
Minimum Humidity 4    
Precipitation  
Precipitation 0.00 in - - ()
Sea Level Pressure  
Sea Level Pressure 30.46 in    
Wind  
Wind Speed 3 mph (SE)    
Max Wind Speed 12 mph    
Max Gust Speed -    
Visibility 10 miles    
Events      
Averages and records for this station are not official NWS values.
T = Trace of Precipitation, MM = Missing Value Source: NWS Daily Summary

Daily Weather History Graph

Daily Weather History Graph

Search for Another Location

Airport:

Trip Planner

Search our weather history database for the weather conditions in past years. The results will help you decide how hot, cold, wet, or windy it might be!

Date:

Astronomy

Feb. 11, 2014 Rise Set
Actual Time 7:02 AM CST 5:29 PM CST
Civil Twilight 6:33 AM CST 5:58 PM CST
Nautical Twilight 6:00 AM CST 6:31 PM CST
Astronomical Twilight 5:28 AM CST 7:03 PM CST
Moon 2:48 PM CST (2/11) 4:40 AM CST (2/11)
Length of Visible Light 11h 24m
Length of Day
10h 27m
Waxing Gibbous, 91% of the Moon is Illuminated
Feb 11
Waxing Gibbous
Feb 14
Full
Feb 22
Last Quarter
Mar 1
New
Mar 8
First Quarter

Hourly Weather History & Observations

Time (CST) Temp. Windchill Dew Point Humidity Pressure Visibility Wind Dir Wind Speed Gust Speed Precip Events Conditions
12:15 AM -14.8 °F -29.1 °F -18.4 °F 84% 30.47 in 10.0 mi NNE 5.8 mph - N/A   Clear
12:35 AM -11.2 °F -31.1 °F -25.6 °F 49% 30.47 in 10.0 mi North 11.5 mph - N/A   Clear
12:55 AM -11.2 °F -26.4 °F -20.2 °F 64% 30.48 in 10.0 mi NNE 6.9 mph - N/A   Clear
1:15 AM -11.2 °F - -25.6 °F 49% 30.49 in 10.0 mi Calm Calm - N/A   Clear
1:35 AM -14.8 °F - -25.6 °F 58% 30.49 in 10.0 mi Calm Calm - N/A   Clear
1:55 AM -14.8 °F - -22.0 °F 70% 30.50 in 10.0 mi Calm Calm - N/A   Clear
2:15 AM -13.0 °F -22.7 °F -20.2 °F 70% 30.50 in 10.0 mi NNW 3.5 mph - N/A   Clear
2:35 AM -14.8 °F -24.8 °F -27.4 °F 53% 30.49 in 10.0 mi West 3.5 mph - N/A   Clear
2:55 AM -18.4 °F -31.4 °F -25.6 °F 70% 30.49 in 10.0 mi West 4.6 mph - N/A   Clear
3:15 AM -16.6 °F -26.8 °F -23.8 °F 70% 30.49 in 10.0 mi WNW 3.5 mph - N/A   Clear
3:35 AM -14.8 °F -24.8 °F -18.4 °F 84% 30.49 in 10.0 mi NNW 3.5 mph - N/A   Clear
3:55 AM -16.6 °F - -22.0 °F 76% 30.49 in 10.0 mi Calm Calm - N/A   Clear
4:15 AM -20.2 °F - - N/A% 30.48 in 10.0 mi Calm Calm - N/A   Clear
4:35 AM -18.4 °F - -20.2 °F 91% 30.49 in 10.0 mi Calm Calm - N/A   Clear
4:55 AM -20.2 °F - - N/A% 30.49 in 10.0 mi Calm Calm - N/A   Clear
5:15 AM -18.4 °F - -23.8 °F 76% 30.49 in 10.0 mi Calm Calm - N/A   Clear
5:35 AM -20.2 °F - - N/A% 30.49 in 10.0 mi Calm Calm - N/A   Clear
5:55 AM -20.2 °F - - N/A% 30.51 in 10.0 mi Calm Calm - N/A   Clear
6:15 AM -18.4 °F - -23.8 °F 76% 30.51 in 10.0 mi Calm Calm - N/A   Clear
6:35 AM -18.4 °F - -25.6 °F 70% 30.51 in 10.0 mi Calm Calm - N/A   Clear
6:55 AM -18.4 °F - - N/A% 30.51 in 9.0 mi Calm Calm - N/A   Clear
7:15 AM -18.4 °F - -25.6 °F 70% 30.52 in 10.0 mi Calm Calm - N/A   Clear
7:35 AM -20.2 °F - - N/A% 30.52 in 10.0 mi Calm Calm - N/A   Clear
7:55 AM -20.2 °F - -27.4 °F 69% 30.53 in 10.0 mi Calm Calm - N/A   Clear
8:15 AM -18.4 °F - -23.8 °F 76% 30.54 in 10.0 mi Calm Calm - N/A   Clear
8:35 AM -18.4 °F - - N/A% 30.54 in 10.0 mi Calm Calm - N/A   Clear
8:55 AM -16.6 °F - -22.0 °F 76% 30.54 in 10.0 mi Calm Calm - N/A   Clear
9:15 AM -16.6 °F - -25.6 °F 64% 30.55 in 10.0 mi Calm Calm - N/A   Clear
9:35 AM -14.8 °F - -23.8 °F 64% 30.54 in 10.0 mi Calm Calm - N/A   Clear
9:55 AM -11.2 °F - -16.6 °F 77% 30.54 in 10.0 mi Calm Calm - N/A   Clear
10:15 AM -9.4 °F - -13.0 °F 84% 30.55 in 10.0 mi Calm Calm - N/A   Clear
10:35 AM -9.4 °F - -14.8 °F 77% 30.54 in 10.0 mi Calm Calm - N/A   Clear
10:55 AM -7.6 °F - -16.6 °F 65% 30.55 in 10.0 mi Calm Calm - N/A   Clear
11:15 AM -5.8 °F - -18.4 °F 55% 30.54 in 10.0 mi Calm Calm - N/A   Clear
11:35 AM -5.8 °F - -16.6 °F 60% 30.53 in 10.0 mi Calm Calm - N/A   Clear
11:55 AM -4.0 °F - -83.2 °F 4% 30.53 in 10.0 mi Calm Calm - N/A   Clear
12:15 PM -2.2 °F - - N/A% 30.52 in 10.0 mi Calm Calm - N/A   Clear
12:35 PM -0.4 °F - - N/A% 30.50 in 10.0 mi Calm Calm - N/A   Clear
12:55 PM 1.4 °F - -25.6 °F 27% 30.49 in 10.0 mi Calm Calm - N/A   Clear
1:15 PM 3.2 °F - -22.0 °F 30% 30.48 in 10.0 mi Calm Calm - N/A   Clear
1:35 PM 5.0 °F - -20.2 °F 30% 30.47 in 10.0 mi Calm Calm - N/A   Clear
1:55 PM 6.8 °F - -16.6 °F 34% 30.46 in 10.0 mi Calm Calm - N/A   Clear
2:15 PM 8.6 °F - -13.0 °F 37% 30.46 in 10.0 mi Calm Calm - N/A   Clear
2:35 PM 8.6 °F - -9.4 °F 44% 30.45 in 10.0 mi Calm Calm - N/A   Clear
2:55 PM 8.6 °F 2.0 °F -9.4 °F 44% 30.44 in 10.0 mi South 3.5 mph - N/A   Clear
3:15 PM 6.8 °F -0.1 °F -5.8 °F 56% 30.44 in 10.0 mi South 3.5 mph - N/A   Clear
3:35 PM 8.6 °F - -5.8 °F 52% 30.44 in 10.0 mi Calm Calm - N/A   Clear
3:55 PM 8.6 °F 2.0 °F -5.8 °F 52% 30.43 in 10.0 mi ESE 3.5 mph - N/A   Clear
4:15 PM 6.8 °F -2.0 °F -7.6 °F 52% 30.42 in 10.0 mi SE 4.6 mph - N/A   Clear
4:35 PM 6.8 °F -5.9 °F -7.6 °F 52% 30.41 in 10.0 mi SE 8.1 mph - N/A   Clear
4:55 PM 6.8 °F -3.5 °F -7.6 °F 52% 30.41 in 10.0 mi SSE 5.8 mph - N/A   Clear
5:15 PM 3.2 °F -6.2 °F -9.4 °F 56% 30.40 in 10.0 mi SE 4.6 mph - N/A   Clear
5:35 PM 1.4 °F -11.3 °F -9.4 °F 61% 30.39 in 10.0 mi SE 6.9 mph - N/A   Clear
5:55 PM 1.4 °F -9.9 °F -13.0 °F 51% 30.39 in 10.0 mi SE 5.8 mph - N/A   Clear
6:15 PM 1.4 °F -9.9 °F -11.2 °F 56% 30.39 in 10.0 mi SSE 5.8 mph - N/A   Clear
6:35 PM -2.2 °F -14.2 °F -16.6 °F 50% 30.38 in 10.0 mi SE 5.8 mph - N/A   Clear
6:55 PM 1.4 °F -11.3 °F -4.0 °F 78% 30.38 in 10.0 mi SSE 6.9 mph - N/A   Clear
7:15 PM -0.4 °F -14.7 °F -9.4 °F 66% 30.38 in 10.0 mi SSE 8.1 mph - N/A   Clear
7:35 PM 1.4 °F -11.3 °F -11.2 °F 56% 30.38 in 10.0 mi SSE 6.9 mph - N/A   Clear
7:55 PM -0.4 °F -12.0 °F -11.2 °F 60% 30.37 in 10.0 mi SSE 5.8 mph - N/A   Clear
8:15 PM -0.4 °F -13.4 °F -14.8 °F 51% 30.37 in 10.0 mi SE 6.9 mph - N/A   Clear
8:35 PM -2.2 °F -15.6 °F -9.4 °F 71% 30.37 in 10.0 mi SE 6.9 mph - N/A   Clear
8:55 PM -2.2 °F -16.8 °F -11.2 °F 66% 30.35 in 10.0 mi SE 8.1 mph - N/A   Clear
9:15 PM -0.4 °F -14.7 °F -11.2 °F 60% 30.36 in 10.0 mi SSE 8.1 mph - N/A   Clear
9:35 PM -0.4 °F -12.0 °F -9.4 °F 66% 30.37 in 10.0 mi SSE 5.8 mph - N/A   Clear
9:55 PM -2.2 °F -16.8 °F -13.0 °F 60% 30.36 in 10.0 mi SE 8.1 mph - N/A   Clear
10:15 PM -2.2 °F -18.0 °F -14.8 °F 55% 30.35 in 10.0 mi SE 9.2 mph - N/A   Clear
10:35 PM -2.2 °F -18.9 °F -9.4 °F 71% 30.35 in 10.0 mi SE 10.4 mph - N/A   Clear
10:55 PM -0.4 °F -12.0 °F -7.6 °F 72% 30.35 in 10.0 mi SSE 5.8 mph - N/A   Clear
11:15 PM -0.4 °F -15.7 °F -9.4 °F 66% 30.33 in 10.0 mi SSE 9.2 mph - N/A   Clear
11:35 PM -0.4 °F -14.7 °F -11.2 °F 60% 30.34 in 10.0 mi SSE 8.1 mph - N/A   Clear
11:55 PM -2.2 °F -16.8 °F -11.2 °F 66% 30.33 in 10.0 mi SSE 8.1 mph - N/A   Clear